Location: Clanezzo
(45.7500°N, 9.6000°E)
Time: 09:19:11
(UTC+00:00)

CUTE-I - Pass Details

Date: 03 December 2023
Orbit: 807 x 823 km, 98.7° (Epoch: 02 March)

Event Time Altitude Azimuth Distance (km) Brightness Sun altitude
Rises 05:59:31 0° 12° (NNE) 3,359 ? -7.7°
Reaches altitude 10° 06:01:52 10° 11° (NNE) 2,425 ? -7.3°
Maximum altitude 06:07:13 77° 287° (WNW) 847 ? -6.5°
Drops below altitude 10° 06:12:34 10° 202° (SSW) 2,415 ? -5.6°
Sets 06:14:55 0° 201° (SSW) 3,344 ? -5.3°
